Torna al catalogo

STARLINK-32919

AttivoComunicazioniVLEO
NORAD 63150·PAYLOAD·🇺🇸 United States

Lanciato Mar 3, 2025 da Cape Canaveral Space Force Station

Loading…

Prossimi Passaggi (prossime 24 ore)

TLE

AggiornatoSource: CelesTrak SupGP

Epoca: Sep 14, 2026, 21:12 UTC

1 63150C 25043U   26257.88381944  .00054935  00000+0  19902-2 0  2571
2 63150  43.0021  27.7520 0001497 273.8709 215.7055 15.27543459    18

Traccia STARLINK-32919 in tempo reale con AllMySat

Download on the App Store